CW7710 Weather Reports


Display with metric or nautical units.
time (UTC)temp
F
wind
direction
speed
MPH
gust
MPH
rain 1hr
in
rain 24hr
in
rain mn
in
humidity
%
barometer
mb
20181121095345 19 68 1.0 0.0 0.00 0.00 0.00 86 1020.1
20181121094356 19 68 1.0 0.0 0.00 0.00 0.00 86 1020.1
20181121093353 18 68 0.0 0.0 0.00 0.00 0.00 86 1020.5
20181121092344 17 68 0.0 0.0 0.00 0.00 0.00 86 1020.5
20181121091342 19 68 1.0 0.0 0.00 0.00 0.00 86 1020.0
20181121090333 19 68 1.0 0.0 0.00 0.00 0.00 86 1020.1
20181121085348 19 68 2.0 0.0 0.00 0.00 0.00 86 1020.5
20181121084400 18 68 2.0 0.0 0.00 0.00 0.00 86 1020.5
20181121083344 19 68 1.0 0.0 0.00 0.00 0.00 86 1020.5
20181121082338 22 68 1.0 0.0 0.00 0.00 0.00 86 1019.9
20181121081349 22 68 3.0 0.0 0.00 0.00 0.00 86 1019.9
20181121080339 23 68 3.0 0.0 0.00 0.00 0.00 86 1019.9
20181121075349 21 68 2.0 0.0 0.00 0.00 0.00 86 1020.5
20181121074340 22 68 2.0 0.0 0.00 0.00 0.00 86 1020.2
20181121073335 22 68 2.0 0.0 0.00 0.00 0.00 86 1020.3
20181121072347 20 68 2.0 0.0 0.00 0.00 0.00 85 1020.6
20181121071335 21 68 1.0 0.0 0.00 0.00 0.00 85 1020.6
20181121070346 21 68 1.0 0.0 0.00 0.00 0.00 85 1020.6
20181121065334 21 68 0.0 0.0 0.00 0.00 0.00 85 1020.3
20181121055345 22 68 0.0 0.0 0.00 0.00 0.00 84 1020.4
20181121054334 22 68 0.0 0.0 0.00 0.00 0.00 84 1020.5
20181121053345 23 68 0.0 0.0 0.00 0.00 0.00 84 1020.5
20181121052335 24 68 0.0 0.0 0.00 0.00 0.00 84 1020.1
20181121051345 24 68 0.0 0.0 0.00 0.00 0.00 84 1020.2
20181121050341 23 68 1.0 0.0 0.00 0.00 0.00 84 1020.4
20181121045352 23 68 3.0 0.0 0.00 0.00 0.00 83 1019.6
20181121044342 24 68 1.0 0.0 0.00 0.00 0.00 83 1020.0
20181121043333 24 68 2.0 0.0 0.00 0.00 0.00 83 1020.2
20181121042345 25 68 2.0 0.0 0.00 0.00 0.00 83 1019.9
20181121041339 26 68 2.0 0.0 0.00 0.00 0.00 83 1019.6
20181121040350 26 68 0.0 0.0 0.00 0.00 0.00 83 1019.5
20181121035341 26 68 1.0 0.0 0.00 0.00 0.00 82 1020.3
20181121034351 27 68 1.0 0.0 0.00 0.00 0.00 82 1019.5
20181121033342 28 68 1.0 0.0 0.00 0.00 0.00 82 1019.9
20181121032337 27 68 2.0 0.0 0.00 0.00 0.00 82 1019.2
20181121031347 26 68 1.0 0.0 0.00 0.00 0.00 81 1020.1
20181121030341 25 68 0.0 0.0 0.00 0.00 0.00 80 1019.7
20181121025352 25 68 0.0 0.0 0.00 0.00 0.00 79 1019.7
20181121024342 27 68 0.0 0.0 0.00 0.00 0.00 79 1019.3
20181121023356 28 68 0.0 0.0 0.00 0.00 0.00 79 1019.8
20181121022344 29 68 1.0 0.0 0.00 0.00 0.00 79 1019.8
20181121021334 30 68 2.0 0.0 0.00 0.00 0.00 78 1019.4
20181121020346 30 68 4.0 0.0 0.00 0.00 0.00 77 1019.5
20181121015337 32 68 2.0 0.0 0.00 0.00 0.00 77 1019.9
20181121014335 32 68 2.0 0.0 0.00 0.00 0.00 77 1020.0
20181121013346 33 68 3.0 0.0 0.00 0.00 0.00 77 1019.8
20181121012337 33 68 2.0 0.0 0.00 0.00 0.00 77 1019.8
20181121011348 31 68 2.0 0.0 0.00 0.00 0.00 76 1019.3
20181121010339 30 68 2.0 0.0 0.00 0.00 0.00 74 1019.5
20181121005352 31 68 1.0 0.0 0.00 0.00 0.00 72 1019.1
20181121004343 33 68 1.0 0.0 0.00 0.00 0.00 71 1019.6
20181121003332 34 68 4.0 0.0 0.00 0.00 0.00 71 1019.5
20181121002345 36 68 6.0 0.0 0.00 0.00 0.00 70 1019.3
20181121001337 35 68 5.0 0.0 0.00 0.00 0.00 69 1019.3
20181121000335 36 68 6.0 0.0 0.00 0.00 0.00 68 1019.3
20181120235348 36 68 5.0 0.0 0.00 0.00 0.00 65 1019.3
20181120234340 39 68 5.0 0.0 0.00 0.00 0.00 61 1019.5
20181120233330 41 68 5.0 0.0 0.00 0.00 0.00 59 1020.1
20181120232344 43 68 4.0 0.0 0.00 0.00 0.00 56 1019.9
20181120231338 45 68 3.0 0.0 0.00 0.00 0.00 55 1019.5
20181120230349 45 68 1.0 0.0 0.00 0.00 0.00 54 1019.6
20181120225339 45 68 3.0 0.0 0.00 0.00 0.00 54 1019.5
20181120224348 45 68 4.0 0.0 0.00 0.00 0.00 53 1019.5
20181120223339 45 68 1.0 0.0 0.00 0.00 0.00 52 1019.6
20181120222335 46 68 1.0 0.0 0.00 0.00 0.00 52 1020.0
20181120221345 45 68 2.0 0.0 0.00 0.00 0.00 52 1019.6
20181120220336 45 68 3.0 0.0 0.00 0.00 0.00 52 1019.7
20181120215347 45 68 2.0 0.0 0.00 0.00 0.00 52 1019.7
20181120214337 45 68 3.0 0.0 0.00 0.00 0.00 52 1019.7
20181120213352 45 68 4.0 0.0 0.00 0.00 0.00 53 1019.9
20181120212342 44 68 4.0 0.0 0.00 0.00 0.00 55 1020.2
20181120211352 44 68 4.0 0.0 0.00 0.00 0.00 55 1020.3
20181120210343 44 68 5.0 0.0 0.00 0.00 0.00 55 1020.4
20181120205334 44 68 4.0 0.0 0.00 0.00 0.00 55 1020.2
20181120204353 44 68 6.0 0.0 0.00 0.00 0.00 54 1020.4
20181120203343 44 68 5.0 0.0 0.00 0.00 0.00 55 1020.5
20181120202335 43 68 5.0 0.0 0.00 0.00 0.00 58 1020.6
20181120201349 43 68 6.0 0.0 0.00 0.00 0.00 59 1020.6
20181120200339 43 68 6.0 0.0 0.00 0.00 0.00 61 1020.8
20181120195354 42 68 6.0 0.0 0.00 0.00 0.00 62 1021.3
20181120194343 41 68 6.0 0.0 0.00 0.00 0.00 64 1021.6
20181120193353 40 68 5.0 0.0 0.00 0.00 0.00 66 1022.2
20181120192343 40 68 5.0 0.0 0.00 0.00 0.00 68 1022.3
20181120191334 39 68 5.0 0.0 0.00 0.00 0.00 71 1022.5
20181120190350 38 68 5.0 0.0 0.00 0.00 0.00 73 1022.2
20181120185340 37 68 5.0 0.0 0.00 0.00 0.00 76 1023.0
20181120184353 37 68 5.0 0.0 0.00 0.00 0.00 78 1023.2
20181120183344 36 68 5.0 0.0 0.00 0.00 0.00 80 1022.8
20181120182334 35 68 4.0 0.0 0.00 0.00 0.00 82 1023.0
20181120181350 35 68 4.0 0.0 0.00 0.00 0.00 83 1023.2
20181120180351 34 68 5.0 0.0 0.00 0.00 0.00 84 1023.7
20181120175341 33 68 4.0 0.0 0.00 0.00 0.00 85 1023.8
20181120174352 32 68 3.0 0.0 0.00 0.00 0.00 86 1023.4
20181120173344 32 68 4.0 0.0 0.00 0.00 0.00 87 1023.5
20181120172338 31 68 3.0 0.0 0.00 0.00 0.00 87 1023.5
20181120171348 30 68 3.0 0.0 0.00 0.00 0.00 87 1024.0
20181120170339 29 68 3.0 0.0 0.00 0.00 0.00 87 1024.1
20181120165347 28 68 3.0 0.0 0.00 0.00 0.00 87 1024.1
20181120164337 28 68 3.0 0.0 0.00 0.00 0.00 87 1024.2
20181120163348 26 68 2.0 0.0 0.00 0.00 0.00 87 1023.7
20181120162343 25 68 3.0 0.0 0.00 0.00 0.00 87 1023.8
20181120161335 24 68 3.0 0.0 0.00 0.00 0.00 87 1024.1
20181120160344 24 68 2.0 0.0 0.00 0.00 0.00 87 1024.1
20181120155335 24 68 0.0 0.0 0.00 0.00 0.00 87 1023.8
20181120154347 23 68 0.0 0.0 0.00 0.00 0.00 87 1024.2
20181120153341 21 68 0.0 0.0 0.00 0.00 0.00 87 1024.5
20181120152352 19 68 0.0 0.0 0.00 0.00 0.00 87 1023.9
20181120151343 19 68 0.0 0.0 0.00 0.00 0.00 87 1023.9
20181120150355 18 68 0.0 0.0 0.00 0.00 0.00 87 1023.8
20181120145336 18 68 0.0 0.0 0.00 0.00 0.00 87 1023.7
20181120144332 18 68 0.0 0.0 0.00 0.00 0.00 87 1023.7
20181120143346 18 68 2.0 0.0 0.00 0.00 0.00 87 1023.7
20181120142337 17 68 2.0 0.0 0.00 0.00 0.00 87 1023.7
20181120141347 17 68 1.0 0.0 0.00 0.00 0.00 87 1023.7
20181120140335 17 68 1.0 0.0 0.00 0.00 0.00 87 1023.7
20181120135334 18 68 1.0 0.0 0.00 0.00 0.00 87 1024.2
20181120134347 17 68 2.0 0.0 0.00 0.00 0.00 87 1023.7
20181120133338 17 68 2.0 0.0 0.00 0.00 0.00 87 1023.7
20181120132349 17 68 0.0 0.0 0.00 0.00 0.00 87 1024.2
20181120131342 17 68 0.0 0.0 0.00 0.00 0.00 87 1023.8
20181120130337 18 68 0.0 0.0 0.00 0.00 0.00 87 1024.3
20181120125347 19 68 1.0 0.0 0.00 0.00 0.00 87 1024.1
20181120124338 19 68 1.0 0.0 0.00 0.00 0.00 87 1024.0
20181120123349 19 68 0.0 0.0 0.00 0.00 0.00 87 1024.0
20181120122341 19 68 1.0 0.0 0.00 0.00 0.00 87 1024.0
20181120121336 20 68 1.0 0.0 0.00 0.00 0.00 87 1023.9
20181120120340 19 68 1.0 0.0 0.00 0.00 0.00 87 1024.0
20181120115331 19 68 0.0 0.0 0.00 0.00 0.00 87 1023.7
20181120114344 19 68 0.0 0.0 0.00 0.00 0.00 87 1023.7
20181120113335 19 68 0.0 0.0 0.00 0.00 0.00 86 1023.7
20181120112350 18 68 2.0 0.0 0.00 0.00 0.00 86 1023.7
20181120111402 19 68 2.0 0.0 0.00 0.00 0.00 86 1023.3
20181120110344 20 68 2.0 0.0 0.00 0.00 0.00 86 1024.1
20181120105338 20 68 2.0 0.0 0.00 0.00 0.00 86 1024.1
20181120104348 19 68 2.0 0.0 0.00 0.00 0.00 86 1024.2
20181120103342 19 68 2.0 0.0 0.00 0.00 0.00 86 1024.2
20181120102353 19 68 2.0 0.0 0.00 0.00 0.00 86 1024.3
20181120101342 19 68 1.0 0.0 0.00 0.00 0.00 86 1024.2
20181120100353 19 68 1.0 0.0 0.00 0.00 0.00 86 1024.3